EHI
32 33 32 32 34 36 40 45 47 41 33 29 27 27 25 19 18 20 19 15 12 9 6 6 5 2 2 3 2 1 0 0 0 0 0 0 1 2 3 2 1 2 2
33 32 30 30 32 33 34 37 39 35 30 26 24 24 20 16 18 21 18 14 11 8 6 6 5 1 2 3 2 1 0 0 0 0 0 0 1 1 2 1 1 1 1
29 27 26 27 28 27 27 30 32 31 27 23 19 17 15 14 17 19 17 13 9 6 5 5 3 1 2 3 3 1 1 0 0 0 0 0 0 0 0 0 0 0 0
25 23 22 23 23 20 21 28 32 30 26 21 16 13 11 13 16 18 18 13 8 4 4 4 2 1 3 4 3 3 1 0 0 0 0 0 0 0 0 0 0 0 0
24 21 19 19 18 18 22 27 30 28 23 19 15 12 10 13 16 17 16 13 8 5 2 2 2 2 2 2 2 2 2 0 0 0 0 0 0 0 0 0 0 0 0
23 20 18 17 16 19 24 28 29 26 21 18 16 14 14 16 16 13 11 9 7 5 2 1 1 1 1 1 0 1 1 0 0 0 0 0 0 0 0 0 0 0 0
22 19 17 17 18 19 23 27 28 25 21 20 20 18 16 15 12 8 5 5 4 3 2 1 0 0 0 0 0 0 0 0 0 0 0 0 0 0 0 0 0 0 0
19 17 16 17 17 18 21 25 28 26 23 22 22 19 14 8 5 3 2 2 1 2 3 2 0 0 0 0 0 0 0 0 0 0 0 0 0 0 0 0 0 0 0
17 16 15 15 16 19 22 25 28 26 22 19 18 15 9 4 1 0 0 1 1 2 3 2 0 0 0 0 0 0 0 0 0 0 0 0 0 0 0 0 0 0 0
19 18 17 17 18 20 23 25 27 24 18 13 10 8 5 2 0 0 0 1 2 3 2 1 0 0 0 0 0 0 0 0 0 0 0 0 0 0 0 0 0 0 0
23 21 20 20 20 21 23 25 25 21 14 9 6 5 3 1 0 1 1 2 3 2 1 0 0 0 0 0 0 0 0 0 0 0 0 0 0 0 0 0 0 0 0
26 26 26 25 24 24 24 25 24 19 13 9 7 5 3 1 1 2 3 3 2 1 0 0 0 0 0 0 0 0 0 0 0 0 0 0 0 0 0 0 0 0 0
34 36 38 37 35 32 29 28 25 19 14 12 9 7 4 1 1 2 3 2 1 0 0 0 0 0 0 0 0 0 0 0 0 0 0 0 0 0 0 0 0 0 0
46 49 55 54 50 45 39 34 29 24 19 17 13 10 7 3 2 2 2 1 0 0 0 0 0 0 0 0 0 0 0 0 0 0 0 0 0 0 0 0 0 0 0
53 59 66 67 63 58 51 42 36 31 26 22 18 15 11 7 4 2 1 1 1 0 0 0 0 0 0 0 0 0 0 1 1 1 1 1 0 0 0 0 0 0 0
56 62 71 74 71 65 58 52 45 39 32 26 21 18 14 10 6 3 3 4 4 2 1 2 1 0 0 0 0 0 0 1 2 2 2 1 0 0 0 0 0 0 0
61 68 74 76 74 69 63 59 54 47 39 29 23 21 18 13 8 5 5 7 7 4 4 4 3 1 0 0 0 0 0 1 1 1 1 1 0 0 0 1 1 1 1
68 74 77 76 76 73 68 63 57 52 43 33 26 23 19 15 11 7 7 8 8 7 6 6 4 2 1 0 0 0 0 0 0 0 0 0 0 0 0 1 2 2 2
72 76 74 72 76 77 72 66 59 51 42 34 29 25 20 17 13 10 10 10 9 8 7 6 6 5 3 1 0 0 0 0 0 0 0 0 0 0 0 1 1 3 3
75 74 71 72 78 79 75 68 61 51 42 37 33 28 24 20 17 16 17 16 13 10 8 7 8 8 7 3 0 0 0 0 0 0 0 0 0 0 0 0 1 2 2
71 72 73 77 82 82 78 72 64 54 46 41 38 34 30 25 21 23 24 21 16 12 10 9 9 9 8 4 1 0 0 0 0 0 0 0 0 0 0 0 0 1 1
63 66 75 82 84 82 79 74 69 60 51 45 43 41 36 27 24 27 27 22 17 14 11 9 7 6 5 4 1 0 0 0 0 0 0 0 0 0 0 0 0 0 0
57 60 70 79 81 80 78 74 71 64 56 51 48 46 40 30 25 25 24 19 15 11 8 5 4 4 5 5 3 1 0 0 0 0 0 0 0 0 0 0 0 0 0
58 60 66 72 74 73 72 71 69 65 58 54 51 47 40 31 25 21 16 12 10 7 4 2 3 5 7 7 5 2 0 0 0 0 0 0 0 0 0 0 0 0 0
61 62 65 69 68 66 66 65 65 63 57 52 48 41 32 25 20 14 8 6 5 4 2 2 4 6 6 4 3 2 0 0 0 0 0 0 0 0 0 0 0 0 1
62 63 66 69 67 64 64 63 63 62 57 51 45 34 23 17 13 8 4 3 2 2 1 1 3 4 3 1 0 1 0 0 0 0 0 0 0 0 0 0 0 1 1
Wind_Speed
10 11 10 11 10 9 8 7 7 7 6 4 4 3 3 3 3 4 4 3 3 3 1 2 2 1 1 2 1 1 2 2 1 2 2 3 4 3 3 3 2 3 4
12 11 11 10 10 10 9 8 8 7 6 5 3 3 3 3 3 4 4 3 3 2 3 2 1 1 2 2 1 1 1 2 1 1 2 2 0 1 2 2 2 1 1
13 13 12 11 11 10 10 8 8 7 6 5 4 4 3 2 4 4 3 3 3 3 4 3 3 2 1 2 1 2 2 2 1 1 1 2 2 2 0 1 1 1 1
13 13 12 12 11 10 9 8 7 6 6 5 4 6 5 4 5 4 4 4 2 3 3 3 3 2 2 3 3 4 3 2 2 1 0 1 1 1 2 1 1 2 2
14 14 14 13 12 11 10 9 7 6 6 5 5 3 3 4 4 5 5 4 3 3 3 4 3 2 3 4 4 3 4 3 4 3 2 2 1 1 1 1 1 1 1
14 14 13 12 11 10 10 10 9 7 6 5 5 3 3 4 6 5 5 3 4 3 3 4 2 2 3 3 3 3 3 3 4 3 3 3 2 2 2 3 3 2 2
15 15 14 13 12 12 11 11 10 8 7 6 5 5 4 5 5 4 4 2 4 4 3 4 2 2 2 2 2 1 2 3 3 3 3 3 3 2 2 2 3 4 3
16 16 15 14 13 14 12 12 10 9 7 6 6 5 5 4 4 2 2 2 2 5 5 4 3 2 1 2 2 1 1 2 2 2 2 2 2 2 2 2 3 4 4
18 17 17 16 15 14 13 13 12 9 8 7 7 5 4 3 5 4 1 2 3 5 5 3 3 2 2 2 1 0 1 1 1 2 2 2 3 2 2 2 2 2 4
18 18 16 15 14 14 13 13 12 10 9 9 8 7 5 5 5 4 2 4 4 4 3 2 2 2 2 1 1 1 1 1 0 1 0 2 2 3 3 2 2 2 2
18 17 15 15 14 15 14 13 13 11 10 9 7 7 7 6 5 4 4 4 3 3 2 2 2 2 2 1 1 2 1 1 1 2 1 1 2 2 3 3 3 2 2
18 18 17 16 15 15 15 14 13 12 11 9 8 7 7 7 6 6 5 5 4 4 3 3 3 3 3 2 2 3 1 1 1 2 2 2 2 1 2 2 3 3 3
17 17 16 15 15 14 13 14 13 13 12 11 10 8 8 7 6 6 6 5 5 4 4 4 3 3 2 2 3 2 2 2 2 2 2 3 3 3 2 3 3 3 4
15 15 14 14 13 12 13 13 13 13 12 11 10 9 8 7 6 6 6 5 5 5 4 4 4 3 3 3 3 3 3 3 3 3 3 4 4 4 3 4 4 3 4
16 15 14 14 13 13 12 13 13 12 11 11 10 9 9 8 7 6 6 6 5 6 5 5 4 4 4 4 4 3 4 3 4 4 4 5 6 5 4 5 3 3 3
18 17 16 15 15 14 14 13 12 12 11 11 10 10 9 9 8 7 7 6 6 5 5 5 5 5 5 4 4 2 3 4 4 5 5 6 6 8 11 11 9 7 6
16 16 16 15 14 14 12 12 12 11 11 11 10 10 10 9 9 9 8 7 6 5 5 5 5 5 4 6 6 5 3 5 5 6 5 7 7 4 5 8 12 12 14
14 15 15 15 15 14 13 12 13 12 12 11 10 11 10 10 9 8 7 7 6 5 5 5 6 5 6 9 9 8 6 6 7 7 7 7 7 7 5 5 6 7 8
10 11 13 15 15 15 14 13 13 13 13 12 11 11 11 10 9 8 7 6 6 5 6 6 6 6 6 10 11 9 5 6 8 9 9 9 8 9 10 7 7 7 7
8 10 12 13 14 14 14 14 14 14 14 13 12 11 10 10 9 8 7 6 6 6 6 6 6 7 7 9 12 12 6 7 7 7 8 11 12 11 11 8 7 8 8
6 8 10 10 12 14 14 14 13 13 12 11 10 9 9 9 8 7 6 6 6 6 6 6 6 7 8 9 13 14 8 7 7 6 5 4 5 8 10 9 8 11 9
6 8 8 9 10 12 13 12 11 10 10 10 10 9 9 9 9 7 6 6 6 6 6 6 7 7 7 9 11 15 16 12 8 7 6 4 4 5 8 9 12 14 10
5 7 9 9 9 10 11 11 9 9 9 9 9 9 9 7 6 7 8 7 6 7 7 7 7 7 6 7 12 14 15 15 9 8 10 10 11 10 9 14 16 12 8
5 6 8 9 8 9 9 9 8 9 9 9 9 8 8 8 6 6 7 7 7 7 7 6 6 5 4 2 2 4 6 8 9 9 10 12 15 14 14 12 10 9 9
4 5 6 8 8 8 7 8 8 8 8 8 7 8 8 8 7 7 6 6 6 5 5 5 4 3 2 1 1 1 2 2 1 3 5 7 8 7 7 7 8 8 8
5 5 6 6 7 7 7 7 7 8 8 7 7 7 7 6 6 6 6 9 9 8 9 8 6 4 4 4 5 5 5 4 1 2 6 8 8 9 8 7 6 6 6
Wind_Direction
147 149 148 143 138 136 135 139 138 139 144 146 157 151 149 147 131 126 119 125 110 96 71 92 118 79 83 54 33 5 295 250 244 288 286 236 215 199 202 201 211 215 220
148 153 154 151 148 148 149 149 146 147 152 144 152 147 137 142 121 102 112 123 117 114 111 70 91 69 98 75 26 24 327 317 68 324 315 303 252 211 199 180 196 212 230
157 160 160 157 155 157 157 153 147 149 148 153 157 134 130 138 119 123 130 120 109 95 64 70 56 8 60 86 18 19 355 336 323 71 358 348 13 334 124 202 138 147 216
163 164 164 160 160 161 153 140 145 145 144 161 159 158 162 152 141 138 126 121 103 105 102 85 71 20 34 63 31 59 350 349 346 41 76 85 63 323 345 321 140 199 203
168 169 166 163 163 159 150 143 145 143 148 158 147 162 153 134 128 118 119 128 119 114 108 98 74 41 60 64 46 39 17 6 11 358 353 355 333 265 276 321 333 298 239
170 168 164 159 159 155 151 148 147 146 151 154 142 152 127 117 117 126 140 165 148 137 115 106 82 62 65 69 52 20 34 39 25 358 347 352 1 356 354 340 330 321 309
169 166 163 161 161 160 156 152 153 153 156 152 143 134 124 121 130 149 160 192 153 136 107 97 90 83 83 87 61 48 41 35 25 349 345 353 345 351 348 333 328 327 308
169 168 167 166 167 164 159 155 156 157 157 152 143 137 143 160 154 159 154 165 96 111 122 119 126 108 89 82 65 335 78 76 2 338 14 324 326 344 348 340 335 322 317
170 170 170 170 169 165 162 160 159 159 160 152 146 148 163 150 121 127 146 119 102 129 125 131 128 121 101 65 28 39 43 55 352 342 6 344 328 339 340 330 328 322 318
171 170 171 170 169 164 160 159 159 160 161 157 164 160 154 135 131 150 138 95 87 83 117 133 137 136 134 140 303 290 139 118 248 251 335 335 324 342 330 326 322 311 304
172 170 170 169 167 164 162 160 161 163 166 167 170 150 157 152 151 155 142 124 124 130 149 162 166 170 179 177 208 280 233 206 260 302 298 284 293 327 326 320 321 314 314
172 170 171 169 171 168 166 165 166 167 169 165 162 157 158 159 164 164 155 151 157 170 179 183 190 209 193 191 217 263 292 275 264 277 296 294 289 280 277 303 303 301 289
172 170 169 170 173 171 167 167 169 169 169 167 169 164 165 167 172 163 159 163 169 184 188 190 205 225 219 205 219 246 277 285 282 280 279 279 284 282 284 291 292 300 303
172 170 167 168 171 169 167 168 171 171 169 169 174 170 171 169 173 167 164 171 179 191 197 199 209 223 232 226 220 224 242 264 275 274 270 270 269 269 273 276 273 281 292
175 173 169 169 169 169 169 170 173 171 170 171 175 170 170 169 175 175 173 179 192 203 195 202 211 222 231 228 219 227 240 245 259 263 261 260 253 243 246 267 288 300 296
179 178 174 171 171 172 173 173 172 170 168 173 177 169 171 174 179 181 182 185 195 211 205 208 219 229 234 166 162 205 289 295 281 275 270 272 246 231 231 238 244 246 257
180 179 177 174 173 174 172 173 171 167 170 176 177 171 176 180 184 190 187 191 195 204 215 218 226 235 208 181 188 205 241 271 278 281 277 279 282 265 231 230 236 243 246
182 179 177 174 173 172 169 171 170 170 174 178 179 175 180 184 183 190 189 190 193 202 211 220 228 235 226 205 210 212 229 254 261 264 263 260 263 265 259 262 254 243 245
179 175 177 176 171 171 170 171 174 175 178 182 183 180 181 184 184 190 192 191 196 206 214 221 226 233 234 214 215 208 232 248 253 254 255 250 248 240 237 242 254 262 265
168 170 175 173 168 168 167 172 178 179 185 186 185 181 180 184 187 189 189 193 198 211 222 227 224 231 235 219 214 207 233 253 260 260 255 248 245 241 234 234 245 255 260
166 165 164 167 165 163 164 174 180 184 183 180 177 176 177 182 185 185 184 190 201 214 226 238 236 234 236 227 216 210 224 246 261 269 273 271 256 239 238 236 246 252 260
164 164 155 152 154 159 164 174 180 175 170 170 172 173 173 187 189 183 187 195 208 217 225 235 246 247 239 230 222 215 219 233 248 260 270 275 281 260 249 243 249 254 261
159 159 151 145 150 158 165 174 171 161 162 165 169 170 173 187 187 183 192 199 208 226 234 232 237 240 236 222 218 217 223 230 237 257 272 286 284 277 263 250 249 250 248
148 147 146 148 150 157 163 168 162 161 163 167 168 168 172 186 195 192 199 207 214 221 233 241 245 246 242 232 194 213 230 239 242 257 271 275 268 260 256 260 249 233 236
105 119 135 144 147 149 154 159 154 155 162 166 170 176 187 191 197 200 209 215 223 225 230 246 255 265 270 172 115 284 270 274 284 286 271 272 271 264 256 248 242 237 231
93 104 117 131 138 140 145 150 153 159 166 175 180 188 195 193 198 205 216 221 227 225 224 231 244 260 244 237 249 254 255 255 225 266 270 271 272 273 273 272 267 256 247